Location: Pasadena, ca
(34.1243°N, 118.1037°W)
Time: 02:25:13
(UTC-07:00)

XW-2C - Visible Passes

Search period start: 25 March 2019 00:00
Search period end: 04 April 2019 00:00
Orbit: 508 x 530 km, 97.5° (Epoch: 24 March)

Date Brightness Start Highest point End Pass type
(mag) Time Alt. Az. Time Alt. Az. Time Alt. Az.
27 Mar ? 06:18:31 10° NE 06:21:51 30° E 06:25:10 10° SSE visible
28 Mar ? 06:05:14 10° NE 06:08:04 20° E 06:10:54 10° SE visible
29 Mar ? 05:52:20 10° ENE 05:54:16 14° E 05:56:11 10° SE visible
